Meteo pe oră la Dziewa

Astăzi, 8 Martie, Luni

Timp Temperatura Precipitaţii Vânt Presiune Umiditate
00:00 -3°C° 0.1 mm 2 m/s 754 mmHg 86%
01:00 -3°C° 0.1 mm 2 m/s 754 mmHg 87%
02:00 -3°C° 0 mm 2 m/s 754 mmHg 84%
03:00 -4°C° 0 mm 2 m/s 754 mmHg 81%
04:00 -4°C° 0 mm 2 m/s 755 mmHg 78%
05:00 -5°C° 0 mm 3 m/s 755 mmHg 76%
06:00 -5°C° 0 mm 3 m/s 755 mmHg 74%
07:00 -4°C° 0 mm 3 m/s 756 mmHg 72%
08:00 -2°C° 0 mm 3 m/s 756 mmHg 66%
09:00 -2°C° 0 mm 4 m/s 757 mmHg 61%
10:00 0°C° 0 mm 4 m/s 757 mmHg 55%
11:00 0°C° 0 mm 4 m/s 757 mmHg 53%
12:00 +1°C° 0 mm 4 m/s 757 mmHg 51%
13:00 +1°C° 0 mm 4 m/s 758 mmHg 49%
14:00 +1°C° 0 mm 4 m/s 758 mmHg 51%
15:00 +1°C° 0 mm 4 m/s 758 mmHg 54%
16:00 0°C° 0 mm 4 m/s 758 mmHg 56%
17:00 0°C° 0 mm 3 m/s 758 mmHg 62%
18:00 -1°C° 0 mm 3 m/s 758 mmHg 69%
19:00 -2°C° 0 mm 2 m/s 759 mmHg 75%
20:00 -3°C° 0 mm 2 m/s 759 mmHg 78%
21:00 -1°C° 0 mm 1 m/s 759 mmHg 80%
22:00 -1°C° 0 mm 1 m/s 759 mmHg 82%
23:00 -1°C° 0 mm 1 m/s 759 mmHg 82%

Mâine, 9 Martie, Marţi

Timp Temperatura Precipitaţii Vânt Presiune Umiditate
00:00 -2°C° 0 mm 1 m/s 759 mmHg 82%
01:00 -3°C° 0 mm 0 m/s 759 mmHg 82%
02:00 -3°C° 0 mm 0 m/s 759 mmHg 82%
03:00 -2°C° 0 mm 0 m/s 759 mmHg 81%
04:00 -2°C° 0 mm 0 m/s 759 mmHg 80%
05:00 -2°C° 0 mm 0 m/s 759 mmHg 79%
06:00 -2°C° 0 mm 0 m/s 759 mmHg 78%
07:00 -2°C° 0 mm 0 m/s 759 mmHg 76%
08:00 0°C° 0 mm 1 m/s 759 mmHg 72%
09:00 +1°C° 0 mm 1 m/s 759 mmHg 68%
10:00 +1°C° 0 mm 1 m/s 759 mmHg 63%
11:00 +2°C° 0 mm 1 m/s 759 mmHg 59%
12:00 +1°C° 0 mm 2 m/s 759 mmHg 55%
13:00 +2°C° 0 mm 2 m/s 758 mmHg 51%
14:00 +3°C° 0 mm 1 m/s 758 mmHg 51%
15:00 +3°C° 0 mm 1 m/s 758 mmHg 52%
16:00 +3°C° 0 mm 1 m/s 757 mmHg 52%
17:00 +2°C° 0 mm 1 m/s 757 mmHg 57%
18:00 +1°C° 0 mm 1 m/s 757 mmHg 63%
19:00 -2°C° 0 mm 2 m/s 757 mmHg 68%
20:00 -3°C° 0 mm 2 m/s 758 mmHg 69%
21:00 -3°C° 0 mm 2 m/s 758 mmHg 71%
22:00 -3°C° 0 mm 2 m/s 758 mmHg 72%
23:00 -3°C° 0 mm 2 m/s 758 mmHg 72%

Poimâine, 10 Martie, Miercuri

Timp Temperatura Precipitaţii Vânt Presiune Umiditate
00:00 -3°C° 0 mm 2 m/s 758 mmHg 71%
01:00 -3°C° 0 mm 2 m/s 757 mmHg 71%
02:00 -3°C° 0 mm 2 m/s 757 mmHg 70%
03:00 -1°C° 0 mm 1 m/s 757 mmHg 69%
04:00 -1°C° 0 mm 1 m/s 757 mmHg 68%
05:00 -1°C° 0 mm 1 m/s 757 mmHg 66%
06:00 -1°C° 0 mm 1 m/s 757 mmHg 65%
07:00 -1°C° 0 mm 1 m/s 757 mmHg 63%
08:00 +1°C° 0 mm 1 m/s 757 mmHg 57%
09:00 +2°C° 0 mm 1 m/s 757 mmHg 51%
10:00 +3°C° 0 mm 1 m/s 757 mmHg 46%
11:00 +3°C° 0 mm 2 m/s 757 mmHg 43%
12:00 +3°C° 0 mm 2 m/s 757 mmHg 40%
13:00 +4°C° 0 mm 2 m/s 757 mmHg 37%
14:00 +4°C° 0 mm 2 m/s 757 mmHg 40%
15:00 +4°C° 0 mm 2 m/s 756 mmHg 42%
16:00 +4°C° 0 mm 2 m/s 756 mmHg 44%
17:00 +2°C° 0 mm 2 m/s 756 mmHg 48%
18:00 +1°C° 0 mm 2 m/s 756 mmHg 53%
19:00 -1°C° 0 mm 2 m/s 756 mmHg 58%
20:00 -2°C° 0 mm 3 m/s 756 mmHg 58%
21:00 -2°C° 0 mm 3 m/s 756 mmHg 59%
22:00 -3°C° 0 mm 4 m/s 756 mmHg 60%
23:00 -3°C° 0 mm 4 m/s 755 mmHg 60%

11 Martie, Joi

Timp Temperatura Precipitaţii Vânt Presiune Umiditate
00:00 -3°C° 0 mm 4 m/s 755 mmHg 59%
01:00 -3°C° 0 mm 4 m/s 755 mmHg 59%
02:00 -3°C° 0 mm 4 m/s 754 mmHg 65%
03:00 -2°C° 0 mm 4 m/s 753 mmHg 70%
04:00 -2°C° 0 mm 5 m/s 752 mmHg 75%
05:00 -2°C° 0 mm 5 m/s 751 mmHg 77%
06:00 -2°C° 0 mm 6 m/s 751 mmHg 79%
07:00 -2°C° 0 mm 6 m/s 750 mmHg 81%
08:00 -1°C° 0.4 mm 6 m/s 749 mmHg 86%
09:00 -1°C° 0.4 mm 7 m/s 748 mmHg 91%
10:00 -1°C° 0.4 mm 7 m/s 747 mmHg 96%
11:00 0°C° 1 mm 7 m/s 746 mmHg 95%
12:00 0°C° 1 mm 7 m/s 745 mmHg 95%
13:00 0°C° 1 mm 7 m/s 745 mmHg 94%
14:00 +2°C° 1.6 mm 7 m/s 744 mmHg 95%
15:00 +2°C° 1.6 mm 6 m/s 743 mmHg 95%
16:00 +3°C° 1.6 mm 6 m/s 742 mmHg 96%
17:00 +4°C° 1.2 mm 6 m/s 741 mmHg 95%
18:00 +5°C° 1.2 mm 7 m/s 741 mmHg 94%
19:00 +5°C° 1.2 mm 7 m/s 740 mmHg 93%
20:00 +5°C° 0.4 mm 6 m/s 741 mmHg 92%
21:00 +4°C° 0.4 mm 6 m/s 741 mmHg 90%
22:00 +3°C° 0.4 mm 5 m/s 741 mmHg 88%
23:00 +3°C° 0 mm 6 m/s 742 mmHg 86%

12 Martie, Vineri

Timp Temperatura Precipitaţii Vânt Presiune Umiditate
00:00 +3°C° 0 mm 6 m/s 742 mmHg 85%
01:00 +3°C° 0 mm 6 m/s 742 mmHg 84%
02:00 +3°C° 0 mm 7 m/s 742 mmHg 83%
03:00 +3°C° 0 mm 7 m/s 742 mmHg 83%
04:00 +2°C° 0 mm 7 m/s 742 mmHg 83%
05:00 +1°C° 0 mm 8 m/s 742 mmHg 83%
06:00 +1°C° 0 mm 8 m/s 742 mmHg 84%
07:00 +1°C° 0 mm 9 m/s 743 mmHg 84%
08:00 +1°C° 0.2 mm 9 m/s 743 mmHg 81%
09:00 +2°C° 0.2 mm 9 m/s 744 mmHg 79%
10:00 +3°C° 0.2 mm 9 m/s 745 mmHg 76%
11:00 +3°C° 0.1 mm 10 m/s 745 mmHg 70%
12:00 +4°C° 0.1 mm 11 m/s 746 mmHg 63%
13:00 +6°C° 0.1 mm 11 m/s 746 mmHg 56%
14:00 +5°C° 0.1 mm 10 m/s 746 mmHg 57%
15:00 +5°C° 0.1 mm 9 m/s 747 mmHg 58%
16:00 +5°C° 0.1 mm 8 m/s 747 mmHg 59%
17:00 +4°C° 0 mm 7 m/s 747 mmHg 63%
18:00 +3°C° 0 mm 6 m/s 748 mmHg 67%
19:00 +3°C° 0 mm 4 m/s 748 mmHg 71%
20:00 +2°C° 0 mm 5 m/s 748 mmHg 74%
21:00 +2°C° 0 mm 5 m/s 748 mmHg 76%
22:00 +2°C° 0 mm 5 m/s 749 mmHg 78%
23:00 +1°C° 0 mm 5 m/s 749 mmHg 79%

13 Martie, Sâmbătă

Timp Temperatura Precipitaţii Vânt Presiune Umiditate
00:00 +1°C° 0 mm 5 m/s 748 mmHg 81%
01:00 +1°C° 0 mm 5 m/s 748 mmHg 82%
02:00 0°C° 0 mm 5 m/s 748 mmHg 84%
03:00 0°C° 0 mm 4 m/s 748 mmHg 85%
04:00 -1°C° 0 mm 4 m/s 748 mmHg 87%
05:00 -1°C° 0 mm 4 m/s 748 mmHg 86%
06:00 -1°C° 0 mm 4 m/s 748 mmHg 85%
07:00 0°C° 0 mm 5 m/s 748 mmHg 84%
08:00 +1°C° 0 mm 5 m/s 748 mmHg 79%
09:00 +3°C° 0 mm 5 m/s 748 mmHg 74%
10:00 +5°C° 0 mm 5 m/s 747 mmHg 70%
11:00 +5°C° 0 mm 6 m/s 747 mmHg 67%
12:00 +7°C° 0 mm 6 m/s 747 mmHg 63%
13:00 +8°C° 0 mm 6 m/s 747 mmHg 60%
14:00 +8°C° 0.1 mm 6 m/s 746 mmHg 63%
15:00 +8°C° 0.1 mm 5 m/s 746 mmHg 66%
16:00 +7°C° 0.1 mm 5 m/s 746 mmHg 69%
17:00 +6°C° 0.1 mm 4 m/s 746 mmHg 75%
18:00 +5°C° 0.1 mm 4 m/s 746 mmHg 81%
19:00 +4°C° 0.1 mm 4 m/s 746 mmHg 87%
20:00 +4°C° 0 mm 3 m/s 747 mmHg 89%
21:00 +3°C° 0 mm 3 m/s 747 mmHg 91%
22:00 +2°C° 0 mm 3 m/s 747 mmHg 93%
23:00 +2°C° 0 mm 3 m/s 747 mmHg 93%
Arată mai mult

Formular de consimțământ

Meteoprog și furnizorii noștri de servicii pot stoca și accesa date personale, precum cookies, identificatori de dispozitiv sau alte tehnologii similare pe dispozitivul dumneavoastră și procesa astfel de date pentru a personaliza conținutul și reclamele, dar și pentru a oferi caracteristici de social media și pentru a analiza traficul.

  • Stocarea și/sau accesarea informațiilor pe dispozitivul dumneavoastră

    Cookies, identificatori de dispozitiv sau alte informații pot fi stocate sau accesate pe dispozitiv în scopurile indicate mai sus.

  • Reclame și conținut personalizat, evaluarea reclamelor și a conținutului, informații despre audiențe și dezvoltarea produselor

    Reclamele și conținutul pot fi personalizate pe baza unui profil. Pot fi adăugate date suplimentare pentru a personaliza mai bine reclamele și conținutul. Performanța reclamelor și conținutului poate fi măsurată. Pot fi obținute informații despre utilizatorii care au văzut reclamele și conținutul. Aceste date pot fi utilizate pentru a dezvolta sau îmbunătăți experiența utilizatorilor, sistemele și software-ul.

Dând clic pe ‘Sunt de acord’, permiteți utilizarea cookie-urilor menționate, a identificatorilor de dispozitiv, balizelor web sau altor tehnologii similare. Setările pot fi modificate din browser-ul dispozitivului dumneavoastră.

În anumite scopuri, interesele legitime pot prima asupra consimțământului. Puteți citi mai multe informații în acest sens în Politica privind Confidențialitatea Datelor și Cookie.